DateTime,F1_A11,F1_S11,BsB_S11,BsG_S11,BsR_S11,BbsB_S11,BbsG_S11,BbsR_S11,BaB_A11,BaG_A11,BaR_A11,T_S11,U_S11,P_S11,T1_A11
2016-08-07T00:00:00Z,0000388,20000608,,,,,,,,,,27.3,04.3,0672.6,34.8
2016-08-07T00:01:00Z,0000388,20000608,,,,,,,,,,27.3,04.3,0672.6,34.8
2016-08-07T00:02:00Z,0000388,20000608,,,,,,,,,,27.3,04.3,0672.6,34.8
2016-08-07T00:03:00Z,0000388,60000608,,,,,,,,,,27.4,04.3,0672.6,34.8
2016-08-07T00:04:00Z,0000388,40000608,0000.76,0000.93,0000.29,-000.27,-000.20,-000.46,-000.09,0000.14,0000.29,27.5,04.1,0673.6,34.8
2016-08-07T00:05:00Z,0000388,00000608,0001.35,0000.47,0000.35,0000.08,0000.16,0000.06,0000.24,0000.08,0000.01,27.5,04.2,0673.6,34.8
2016-08-07T00:06:00Z,0000388,00000608,0000.77,0001.54,0000.70,0000.06,0000.14,-000.24,0000.09,0000.06,-000.05,27.5,04.1,0673.6,34.8
2016-08-07T00:07:00Z,0000388,00000608,0001.43,0000.80,0000.67,0000.19,0000.45,-000.22,0000.03,0000.16,-000.12,27.5,04.2,0673.6,34.8
2016-08-07T00:08:00Z,0000388,00000608,0000.12,0000.85,0000.43,0000.28,-000.13,-000.13,0000.15,0000.00,0000.11,27.5,04.2,0673.6,34.8
2016-08-07T00:09:00Z,0000388,00000608,0000.08,0000.57,0000.63,0000.13,0000.05,0000.16,0000.11,0000.04,0000.08,27.5,04.1,0673.6,34.8
2016-08-07T00:10:00Z,0000388,00000608,0000.15,0000.73,0000.28,-000.30,0000.31,-000.24,0000.13,0000.04,-000.12,27.5,04.1,0673.6,34.8
2016-08-07T00:11:00Z,0000388,00000608,0000.35,0000.92,0000.20,0000.65,-000.13,0000.13,-000.06,0000.19,0000.23,27.5,04.1,0673.5,34.8
2016-08-07T00:12:00Z,0000388,00000608,-000.17,0000.94,0000.15,0000.13,0000.39,-000.33,0000.22,-000.06,0000.02,27.5,04.1,0673.5,34.8
2016-08-07T00:13:00Z,0000388,00000608,0001.24,0000.21,0001.15,-000.16,0000.34,-000.08,0000.02,0000.32,0000.00,27.5,04.1,0673.5,34.8
2016-08-07T00:14:00Z,0000388,00000608,0000.14,0000.06,0000.71,0000.28,0000.16,-000.06,-000.08,-000.05,0000.30,27.5,04.2,0673.5,34.8
2016-08-07T00:15:00Z,0000388,00000608,0000.87,0000.67,0001.04,0000.14,0000.08,-000.25,0000.22,0000.07,-000.23,27.5,04.1,0673.5,34.8
2016-08-07T00:16:00Z,0000388,00000608,0001.00,0000.78,0000.33,0000.03,0000.49,-000.27,0000.27,-000.07,0000.04,27.5,04.1,0673.5,34.8
2016-08-07T00:17:00Z,0000388,00000608,0000.80,0001.12,0000.63,0000.08,0000.42,0000.33,0000.15,0000.15,0000.09,27.5,04.1,0673.5,34.8
2016-08-07T00:18:00Z,0000388,00000608,0000.57,0000.54,0000.29,0000.13,0000.27,0000.27,-000.02,0000.17,0000.25,27.5,04.0,0673.5,34.8
2016-08-07T00:19:00Z,0000388,00000608,0001.14,0000.19,0000.73,-000.44,0000.16,0000.17,0000.22,0000.17,-000.04,27.5,04.1,0673.5,34.8
2016-08-07T00:20:00Z,0000388,00000608,0000.26,0000.64,0000.05,0000.30,0000.19,-000.17,-000.17,-000.01,0000.09,27.5,04.1,0673.5,34.8
2016-08-07T00:21:00Z,0000388,00000608,0000.63,0000.40,0000.12,-000.08,0000.03,0000.13,0000.18,0000.20,0000.07,27.5,04.1,0673.5,34.8
2016-08-07T00:22:00Z,0000388,00000608,0001.40,0001.08,0000.61,-000.36,0000.16,-000.16,0000.07,-000.01,0000.13,27.5,04.2,0673.5,34.8
2016-08-07T00:23:00Z,0000388,00000608,0000.69,0001.31,0000.33,0000.66,0000.17,0000.00,-000.01,0000.11,-000.01,27.5,04.2,0673.5,34.8
2016-08-07T00:24:00Z,0000388,00000608,0000.27,0000.15,0000.66,0000.19,0000.24,0000.20,0000.18,-000.13,0000.03,27.5,04.2,0673.5,34.8
2016-08-07T00:25:00Z,0000388,00000608,0001.73,0001.06,0000.80,0000.03,-000.22,0000.00,0000.25,0000.32,0000.12,27.5,04.3,0673.4,34.8
2016-08-07T00:26:00Z,0000388,00000608,-000.71,0000.64,0000.16,0000.19,0000.58,-000.24,-000.09,0000.01,0000.04,27.5,04.2,0673.5,34.8
2016-08-07T00:27:00Z,0000388,00000608,0000.76,0000.52,0000.24,0000.55,-000.03,0000.08,0000.14,0000.06,0000.16,27.5,04.3,0673.5,34.8
2016-08-07T00:28:00Z,0000388,00000608,0000.55,0000.09,0000.66,0000.20,0000.30,0000.09,0000.08,0000.18,-000.02,27.5,04.2,0673.4,34.8
2016-08-07T00:29:00Z,0000388,00000608,0000.57,0000.80,0000.30,-000.25,-000.22,-000.61,0000.04,0000.16,0000.25,27.5,04.3,0673.4,34.8
2016-08-07T00:30:00Z,0000388,00000608,0001.19,0000.83,0001.15,0000.14,0000.19,0000.05,0000.14,0000.04,-000.07,27.5,04.3,0673.4,34.8
2016-08-07T00:31:00Z,0000388,00000608,0000.53,0000.87,0000.14,-000.13,-000.05,-000.05,0000.04,0000.06,0000.05,27.5,04.2,0673.5,34.8
2016-08-07T00:32:00Z,0000388,00000608,0001.41,0001.24,0000.22,0000.31,-000.13,-000.17,0000.01,0000.04,0000.17,27.5,04.3,0673.5,34.8
2016-08-07T00:33:00Z,0000388,00000608,0000.95,0000.57,0000.37,-000.14,0000.28,0000.41,0000.07,-000.01,-000.16,27.5,04.3,0673.4,34.8
2016-08-07T00:34:00Z,0000388,00000608,0001.35,0001.47,0000.45,0000.50,0000.19,-000.03,0000.31,0000.18,0000.20,27.5,04.3,0673.4,34.8
2016-08-07T00:35:00Z,0000388,00000608,0001.70,0001.17,0000.34,0000.83,0000.20,-000.19,0000.21,0000.19,0000.18,27.5,04.4,0673.4,34.8
2016-08-07T00:36:00Z,0000388,00000608,0001.00,0000.21,0000.79,0000.24,0000.61,0000.17,-000.09,-000.07,-000.15,27.5,04.3,0673.4,34.8
2016-08-07T00:37:00Z,0000388,00000608,0002.17,0000.59,0000.07,0000.83,0000.60,-000.17,0000.10,0000.16,0000.26,27.5,04.2,0673.4,34.8
2016-08-07T00:38:00Z,0000388,00000608,0001.29,0001.47,0000.80,0000.17,0000.38,-000.54,0000.05,0000.10,0000.15,27.5,04.3,0673.4,34.8
2016-08-07T00:39:00Z,0000388,00000608,0000.00,0000.89,0000.62,0000.00,0000.22,0000.05,0000.10,0000.10,-000.09,27.5,04.4,0673.4,34.8
2016-08-07T00:40:00Z,0000388,00000608,0002.18,0000.67,0000.69,0000.83,0000.27,-000.17,0000.34,0000.17,0000.19,27.5,04.4,0673.4,34.8
2016-08-07T00:41:00Z,0000388,00000608,0001.23,0000.98,0000.67,0000.32,0000.06,-000.13,-000.34,0000.00,0000.08,27.5,04.4,0673.3,34.8
2016-08-07T00:42:00Z,0000388,00000608,0000.50,0001.37,0000.64,-000.06,0000.16,-000.16,0000.30,0000.11,-000.10,27.5,04.4,0673.3,34.8
2016-08-07T00:43:00Z,0000388,00000608,0000.59,0000.87,0000.26,0000.17,0000.50,0000.27,-000.09,-000.08,0000.45,27.5,04.4,0673.4,34.8
2016-08-07T00:44:00Z,0000388,00000608,0001.02,0000.86,0000.75,0000.99,0000.28,-000.11,0000.40,0000.11,-000.25,27.5,04.5,0673.3,34.8
2016-08-07T00:45:00Z,0000388,00000608,0000.81,0000.82,0000.26,0000.79,-000.02,0000.09,-000.18,0000.18,-000.20,27.5,04.5,0673.3,34.8
2016-08-07T00:46:00Z,0000388,00000608,0001.29,0000.65,0000.61,-000.14,0000.33,0000.25,0000.14,-000.01,0000.41,27.5,04.4,0673.3,34.8
2016-08-07T00:47:00Z,0000388,00000608,0000.37,0000.96,0001.01,0000.24,0000.42,0000.02,0000.28,0000.16,-000.10,27.5,04.4,0673.3,34.8
2016-08-07T00:48:00Z,0000388,00000608,-000.06,0001.02,0000.93,0000.32,0000.28,0000.14,-000.11,0000.05,0000.07,27.5,04.5,0673.3,34.8
2016-08-07T00:49:00Z,0000388,00000608,0002.09,0000.94,0000.95,-000.43,0000.20,-000.02,0000.20,0000.02,-000.11,27.5,04.4,0673.3,34.8
2016-08-07T00:50:00Z,0000388,00000608,0000.69,0001.33,0000.83,0000.00,0000.38,-000.02,0000.08,0000.06,0000.23,27.5,04.4,0673.3,34.8
2016-08-07T00:51:00Z,0000388,00000608,-000.02,0000.60,0000.66,0000.30,0000.20,-000.09,0000.18,0000.17,-000.01,27.5,04.4,0673.3,34.8
2016-08-07T00:52:00Z,0000388,00000608,0001.04,0000.78,0000.66,0000.50,0000.02,0000.05,0000.17,0000.04,0000.26,27.5,04.4,0673.3,34.8
2016-08-07T00:53:00Z,0000388,00000608,0001.30,0000.45,0000.98,0000.57,0000.11,0000.17,-000.06,0000.27,0000.05,27.5,04.5,0673.3,34.8
2016-08-07T00:54:00Z,0000388,00000608,0000.96,0001.19,0000.34,-000.32,0000.24,-000.22,0000.18,-000.00,-000.03,27.5,04.5,0673.2,34.8
2016-08-07T00:55:00Z,0000388,00000608,0001.35,0001.56,0000.57,-000.17,0000.27,-000.14,0000.22,0000.07,0000.11,27.5,04.4,0673.2,34.8
2016-08-07T00:56:00Z,0000388,00000608,-000.10,0001.00,0000.83,-000.02,-000.19,-000.03,-000.13,-000.02,0000.20,27.5,04.5,0673.2,34.8
2016-08-07T00:57:00Z,0000388,40000608,,,,,,,,,,,,0673.2,34.8
2016-08-07T00:58:00Z,0000388,60000608,,,,,,,,,,27.3,04.5,0672.2,34.8
2016-08-07T00:59:00Z,0000388,20000608,,,,,,,,,,27.3,04.5,0672.2,34.8
2016-08-07T01:00:00Z,0000388,20000608,,,,,,,,,,27.3,04.5,0672.2,34.8
2016-08-07T01:01:00Z,0000388,20000608,,,,,,,,,,27.3,04.5,0672.2,34.8
2016-08-07T01:02:00Z,0000388,20000608,,,,,,,,,,27.3,04.5,0672.2,34.8
2016-08-07T01:03:00Z,0000388,60000608,,,,,,,,,,27.3,04.5,0672.2,34.8
2016-08-07T01:04:00Z,0000388,40000608,0001.24,0000.90,0000.58,0000.19,0000.03,-000.21,0000.12,0000.10,-000.23,27.5,04.7,0673.1,34.8
2016-08-07T01:05:00Z,0000388,00000608,0000.45,0000.77,0000.49,-000.08,-000.03,0000.36,0000.05,0000.07,0000.24,27.5,04.7,0673.2,34.8
2016-08-07T01:06:00Z,0000388,00000608,0000.61,0001.20,0000.34,0000.17,0000.39,0000.39,0000.12,0000.03,0000.02,27.5,04.7,0673.1,34.8
2016-08-07T01:07:00Z,0000388,00000608,0001.33,0001.03,0000.95,0000.00,-000.09,0000.16,0000.01,0000.08,-000.12,27.5,04.8,0673.1,34.8
2016-08-07T01:08:00Z,0000388,00000608,0000.56,0001.27,0000.70,-000.16,0000.05,0000.39,0000.29,0000.06,0000.17,27.5,04.8,0673.1,34.8
2016-08-07T01:09:00Z,0000388,00000608,0001.64,0001.05,0000.31,-000.03,0000.14,0000.28,0000.03,0000.05,0000.05,27.5,04.8,0673.1,34.8
2016-08-07T01:10:00Z,0000388,00000608,0000.92,0000.99,0000.69,0000.72,0000.20,0000.35,0000.06,0000.17,0000.01,27.5,04.8,0673.1,34.8
2016-08-07T01:11:00Z,0000388,00000608,0001.22,0001.35,0000.98,0000.09,-000.14,0000.60,0000.04,0000.12,0000.17,27.5,04.8,0673.1,34.8
2016-08-07T01:12:00Z,0000388,00000608,-000.52,0001.20,0000.31,0000.33,0000.24,-000.33,0000.13,-000.04,0000.08,27.5,04.8,0673.1,34.8
2016-08-07T01:13:00Z,0000388,00000608,0001.51,0000.80,0000.68,-000.08,0000.08,0000.22,0000.06,0000.25,0000.09,27.5,04.8,0673.1,34.8
2016-08-07T01:14:00Z,0000388,00000608,0000.75,0001.10,0000.10,-000.49,0000.08,0000.02,0000.29,-000.09,0000.26,27.5,04.7,0673.1,34.8
2016-08-07T01:15:00Z,0000388,00000608,0001.32,0000.86,0000.26,0000.00,0000.11,0000.41,-000.08,0000.13,-000.03,27.5,04.8,0673.1,34.8
2016-08-07T01:16:00Z,0000388,00000608,0000.04,0000.82,0000.63,0000.43,0000.38,0000.39,0000.01,-000.01,0000.02,27.5,04.9,0673.1,34.8
2016-08-07T01:17:00Z,0000388,00000608,0001.40,0000.72,0000.31,-000.09,0000.28,0000.58,0000.18,0000.33,-000.07,27.5,04.9,0673.1,34.8
2016-08-07T01:18:00Z,0000388,00000608,0000.93,0000.52,0000.93,0000.72,0000.31,0000.74,0000.14,-000.21,0000.11,27.5,04.8,0673.1,34.8
2016-08-07T01:19:00Z,0000388,00000608,-000.53,0000.79,0000.44,-000.80,0000.17,0000.24,0000.02,0000.02,0000.14,27.5,04.9,0673.1,34.8
2016-08-07T01:20:00Z,0000388,00000608,0001.12,0001.66,0000.27,0000.24,0000.20,0000.00,0000.27,0000.20,0000.11,27.5,05.0,0673.1,34.8
2016-08-07T01:21:00Z,0000388,00000608,0000.88,0000.76,0000.51,-000.08,0000.20,0000.25,0000.08,0000.16,0000.24,27.4,04.9,0673.1,34.8
2016-08-07T01:22:00Z,0000388,00000608,0000.46,0000.92,0000.18,-000.02,0000.19,0000.32,-000.19,-000.07,-000.42,27.4,04.9,0673.1,34.8
2016-08-07T01:23:00Z,0000388,00010608,0000.47,0000.99,0000.18,0000.55,-000.53,0000.36,0000.30,0000.10,0000.34,27.5,04.9,0673.1,34.8
2016-08-07T01:24:00Z,0000388,00000608,0000.31,0001.16,0000.14,-000.08,0000.55,-000.09,-000.01,0000.18,0000.06,27.5,05.0,0673.1,34.8
2016-08-07T01:25:00Z,0000388,00000608,0001.12,0001.28,0000.48,-000.05,-000.05,0000.41,0000.04,-000.03,0000.14,27.5,04.9,0673.0,34.8
2016-08-07T01:26:00Z,0000388,00000608,0000.77,0001.03,0000.42,-000.22,0000.27,0000.27,-000.08,0000.04,-000.06,27.5,05.0,0673.0,34.8
2016-08-07T01:27:00Z,0000388,00000608,0001.30,0001.16,0000.42,0000.25,0000.20,0000.80,0000.14,0000.06,-000.06,27.5,05.0,0673.0,34.8
2016-08-07T01:28:00Z,0000388,00000608,0000.59,0001.13,0000.41,0000.72,0000.16,0000.03,0000.21,0000.01,0000.50,27.5,05.0,0673.0,34.8
2016-08-07T01:29:00Z,0000388,00000608,0001.24,0000.69,0000.50,0000.03,-000.13,0000.09,0000.11,0000.24,-000.16,27.5,05.0,0673.0,34.8
2016-08-07T01:30:00Z,0000388,00000608,0000.66,0000.21,0000.12,0000.50,0000.22,0000.14,0000.17,-000.04,0000.12,27.5,05.1,0673.0,34.8
2016-08-07T01:31:00Z,0000388,00000608,0000.63,0001.34,0000.26,0000.41,0000.33,0000.32,-000.13,0000.06,0000.02,27.5,05.0,0673.0,34.8
2016-08-07T01:32:00Z,0000388,00000608,0000.43,0000.67,0000.06,-000.22,-000.09,0000.44,0000.07,-000.01,-000.01,27.5,05.0,0673.0,34.8
2016-08-07T01:33:00Z,0000388,00000608,0000.19,0000.68,0000.43,0000.54,0000.41,0000.30,0000.06,0000.02,-000.07,27.5,05.0,0673.0,34.8
2016-08-07T01:34:00Z,0000388,00000608,0000.85,0001.54,0000.02,0000.47,0000.13,0000.33,0000.08,0000.23,-000.11,27.5,05.0,0672.9,34.8
2016-08-07T01:35:00Z,0000388,00000608,0000.53,0001.34,0000.30,0000.36,0000.27,-000.22,0000.13,-000.02,0000.27,27.5,05.0,0673.0,34.8
2016-08-07T01:36:00Z,0000388,00000608,0001.68,0000.54,0000.64,0000.35,0000.16,0000.19,-000.04,-000.01,-000.06,27.5,05.0,0672.9,34.8
2016-08-07T01:37:00Z,0000388,00000608,0000.58,0000.52,0000.25,0000.16,0000.27,0000.32,0000.27,0000.32,0000.30,27.5,05.0,0672.9,34.8
2016-08-07T01:38:00Z,0000388,00000608,0000.48,0000.58,0000.39,0000.17,0000.42,0000.17,-000.02,0000.02,0000.11,27.5,05.0,0672.9,34.8
2016-08-07T01:39:00Z,0000388,00000608,0001.19,0001.17,0000.36,-000.27,0000.30,-000.11,0000.28,-000.05,-000.35,27.5,05.0,0672.9,34.8
2016-08-07T01:40:00Z,0000388,00000608,0000.79,0001.51,0000.16,-000.43,0000.14,-000.24,-000.08,0000.29,0000.24,27.5,05.0,0672.9,34.8
2016-08-07T01:41:00Z,0000388,00000608,0000.63,0000.98,0000.25,0000.05,0000.24,0000.43,0000.11,-000.07,0000.13,27.5,05.0,0672.9,34.8
2016-08-07T01:42:00Z,0000388,00000608,0000.55,0001.01,0000.37,-000.06,0000.16,0000.35,0000.18,0000.07,0000.02,27.5,05.0,0672.9,34.8
2016-08-07T01:43:00Z,0000388,00000608,0001.16,0001.11,0000.52,0000.58,-000.05,0000.25,-000.06,0000.20,0000.08,27.5,05.0,0672.9,34.8
2016-08-07T01:44:00Z,0000388,00000608,0001.02,0000.73,0000.29,0000.66,0000.24,0000.32,0000.18,0000.03,-000.13,27.5,05.0,0672.9,34.8
2016-08-07T01:45:00Z,0000388,00000608,0001.70,0001.84,0001.06,0000.16,-000.08,-000.03,0000.53,0000.64,0000.54,27.5,05.1,0672.9,34.8
2016-08-07T01:46:00Z,0000388,00000608,0000.17,0001.38,0000.89,0000.63,0000.11,0000.41,0000.05,-000.21,-000.08,27.4,05.1,0672.9,34.8
2016-08-07T01:47:00Z,0000388,00000608,0000.82,0000.47,0000.56,0000.68,-000.19,0000.41,0000.01,0000.25,0000.23,27.5,05.1,0673.0,34.8
2016-08-07T01:48:00Z,0000388,00000608,0000.13,0001.48,0000.48,0000.19,0000.31,-000.02,0000.06,-000.07,0000.04,27.5,05.1,0673.0,34.8
2016-08-07T01:49:00Z,0000388,00000608,0000.60,0000.68,0000.10,-000.06,0000.17,0000.46,0000.29,-000.02,0000.18,27.4,05.2,0673.0,34.8
2016-08-07T01:50:00Z,0000388,00000608,0000.51,0001.36,0000.40,-000.13,0000.66,-000.06,0000.16,0000.23,0000.01,27.4,05.1,0673.0,34.8
2016-08-07T01:51:00Z,0000388,00000608,0001.24,0001.29,0000.58,0000.02,0000.24,0000.22,0000.05,0000.12,0000.19,27.4,05.1,0673.0,34.8
2016-08-07T01:52:00Z,0000388,00000608,0000.39,0000.91,0000.51,0000.16,0000.56,0000.39,0000.07,0000.11,0000.17,27.4,05.1,0673.0,34.8
2016-08-07T01:53:00Z,0000388,00000608,0000.67,0001.11,0000.78,0000.44,0000.05,0000.25,0000.14,-000.02,-000.19,27.5,05.1,0673.0,34.8
2016-08-07T01:54:00Z,0000388,00000608,0000.54,0000.93,0000.55,-000.28,0000.22,0000.54,0000.01,0000.04,-000.02,27.5,05.1,0672.9,34.8
2016-08-07T01:55:00Z,0000388,00000608,0001.05,0001.54,0000.30,-000.39,0000.25,0000.05,0000.06,-000.10,0000.22,27.4,05.1,0673.0,34.8
2016-08-07T01:56:00Z,0000388,00000608,-000.30,0000.96,0000.45,-000.16,0000.24,0000.36,-000.12,0000.46,-000.24,27.4,05.1,0672.9,34.8
2016-08-07T01:57:00Z,0000388,40000608,,,,,,,,,,,,0673.1,34.8
2016-08-07T01:58:00Z,0000388,60000608,,,,,,,,,,27.3,05.0,0671.9,34.8
2016-08-07T01:59:00Z,0000388,20000608,,,,,,,,,,27.3,05.0,0671.9,34.8
2016-08-07T02:00:00Z,0000388,20000608,,,,,,,,,,27.3,05.0,0671.9,34.8
2016-08-07T02:01:00Z,0000388,20000608,,,,,,,,,,27.3,05.0,0671.9,34.8
2016-08-07T02:02:00Z,0000388,20000608,,,,,,,,,,27.3,05.0,0671.9,34.8
2016-08-07T02:03:00Z,0000388,60000608,,,,,,,,,,27.3,05.0,0671.9,34.8
2016-08-07T02:04:00Z,0000388,40000608,0000.68,0000.86,0000.77,0000.25,0000.53,0000.03,0000.02,0000.08,0000.25,27.5,05.1,0672.8,34.8
2016-08-07T02:05:00Z,0000388,00000608,0001.87,0001.13,0000.48,-000.25,0000.75,-000.03,0000.29,0000.24,-000.04,27.5,05.0,0672.9,34.8
2016-08-07T02:06:00Z,0000388,00000608,0001.67,0000.95,0000.81,0000.06,0000.27,-000.02,-000.03,0000.01,0000.01,27.5,05.0,0672.9,34.8
2016-08-07T02:07:00Z,0000388,00000608,0001.48,0001.14,0000.96,0000.35,0000.25,-000.16,0000.01,-000.02,-000.03,27.5,05.0,0672.9,34.8
2016-08-07T02:08:00Z,0000388,00000608,0000.41,0001.07,0000.94,-000.14,0000.72,-000.05,-000.03,0000.02,0000.01,27.5,05.0,0672.9,34.8
2016-08-07T02:09:00Z,0000388,00000608,0000.89,0001.17,0000.64,-000.33,0000.28,-000.05,0000.13,0000.30,0000.14,27.5,05.0,0672.9,34.8
2016-08-07T02:10:00Z,0000388,00000608,0001.44,0000.41,0001.08,0000.09,0000.08,0000.25,0000.12,0000.00,0000.17,27.5,05.0,0672.9,34.8
2016-08-07T02:11:00Z,0000388,00000608,0001.72,0000.91,0000.38,0000.05,0000.20,-000.22,0000.27,0000.13,0000.08,27.5,05.0,0672.9,34.8
2016-08-07T02:12:00Z,0000388,00000608,0001.74,0001.25,0000.40,-000.71,-000.13,0000.00,0000.23,-000.07,0000.04,27.5,05.0,0672.9,34.8
2016-08-07T02:13:00Z,0000388,00000608,0001.54,-000.02,0000.57,0000.30,0000.46,-000.17,-000.26,0000.12,-000.03,27.4,05.0,0672.9,34.8
2016-08-07T02:14:00Z,0000388,00000608,0001.48,0000.58,0000.72,-000.05,0000.55,-000.14,0000.18,0000.04,0000.36,27.4,05.1,0672.9,34.8
2016-08-07T02:15:00Z,0000388,00000608,0001.76,0000.95,0000.88,0000.17,0000.28,-000.05,0000.07,0000.17,-000.25,27.5,05.0,0672.9,34.8
2016-08-07T02:16:00Z,0000388,00000608,0001.36,0000.69,0000.49,0000.22,0000.82,0000.02,-000.10,0000.06,0000.03,27.4,05.0,0672.9,34.8
2016-08-07T02:17:00Z,0000388,00000608,0001.34,0000.94,0000.28,0000.60,0000.50,-000.16,0000.08,0000.06,0000.20,27.5,05.0,0672.9,34.8
2016-08-07T02:18:00Z,0000388,00000608,0001.35,0000.61,0000.57,0000.33,0000.11,0000.50,0000.32,0000.10,0000.02,27.4,05.0,0672.9,34.8
2016-08-07T02:19:00Z,0000380,00000600,0001.05,0000.55,0000.71,0000.65,0000.14,0000.08,0000.11,0000.11,0000.07,27.4,05.0,0672.8,34.8
2016-08-07T02:20:00Z,0000380,00000600,0000.93,0000.32,0000.71,0000.66,0000.11,-000.28,-000.13,-000.01,0000.22,27.4,04.9,0672.8,34.8
2016-08-07T02:21:00Z,0000380,00000600,0001.06,0000.83,0000.29,0000.71,0000.67,-000.22,0000.21,0000.09,-000.20,27.4,04.9,0672.8,34.8
2016-08-07T02:22:00Z,0000380,00000600,0000.96,0000.92,0000.51,0000.38,0000.52,-000.13,0000.10,0000.19,0000.14,27.4,04.9,0672.7,34.8
2016-08-07T02:23:00Z,0000380,00000600,0002.06,0000.71,0001.04,0000.57,0000.55,0000.09,-000.06,0000.08,0000.03,27.4,04.9,0672.7,34.8
2016-08-07T02:24:00Z,0000380,00000600,0001.52,0000.96,0000.36,-000.79,0000.38,0000.17,0000.30,-000.20,0000.04,27.4,04.8,0672.7,34.8
2016-08-07T02:25:00Z,0000380,00000600,0000.62,0000.47,0001.10,0000.24,0000.00,0000.09,0000.16,0000.20,0000.13,27.4,04.8,0672.7,34.8
2016-08-07T02:26:00Z,0000380,00000600,0000.45,0000.90,0000.55,0000.16,0000.57,-000.24,-000.17,0000.01,-000.42,27.4,04.8,0672.7,34.8
2016-08-07T02:27:00Z,0000380,00000600,0000.60,0000.94,0000.98,-000.55,0000.22,-000.32,-000.02,0000.04,0000.39,27.4,04.7,0672.7,34.8
2016-08-07T02:28:00Z,0000380,00000600,0001.28,0000.39,0000.54,-000.09,0000.44,0000.14,0000.09,0000.07,-000.12,27.4,04.7,0672.7,34.8
2016-08-07T02:29:00Z,0000380,00000600,0000.46,0000.72,0000.42,-000.49,0000.42,0000.24,0000.05,0000.20,0000.26,27.3,04.8,0672.7,34.8
2016-08-07T02:30:00Z,0000380,00000600,0001.68,0000.62,0000.72,-000.24,0000.31,0000.41,0000.29,-000.05,0000.04,27.4,04.7,0672.7,34.8
2016-08-07T02:31:00Z,0000380,00000600,0001.40,0000.67,0000.72,0000.08,0000.14,-000.21,0000.03,0000.12,0000.01,27.4,04.7,0672.6,34.8
2016-08-07T02:32:00Z,0000380,00000600,0001.63,0000.45,0000.66,-000.19,0000.46,0000.03,0000.04,0000.12,0000.02,27.4,04.7,0672.6,34.8
2016-08-07T02:33:00Z,0000380,00000600,0000.95,0000.72,0000.79,-000.02,0000.22,-000.13,-000.07,0000.04,-000.05,27.3,04.6,0672.6,34.8
2016-08-07T02:34:00Z,0000380,00000600,0001.30,0000.41,0000.39,-000.02,0000.30,-000.21,0000.35,0000.17,0000.44,27.4,04.6,0672.6,34.8
2016-08-07T02:35:00Z,0000380,00000600,0001.80,0000.97,0000.73,-000.05,-000.13,0000.19,0000.02,-000.09,-000.30,27.3,04.6,0672.6,34.8
2016-08-07T02:36:00Z,0000380,00000600,0000.52,0000.55,0000.29,0000.33,0000.22,0000.00,0000.26,0000.15,0000.17,27.4,04.6,0672.6,34.8
2016-08-07T02:37:00Z,0000380,00000600,0001.02,0000.39,0000.72,-000.03,0000.17,0000.25,-000.10,0000.11,-000.05,27.3,04.5,0672.5,34.8
2016-08-07T02:38:00Z,0000380,00000600,0001.04,0000.63,0000.63,0000.32,0000.35,-000.09,0000.17,0000.03,0000.05,27.4,04.6,0672.5,34.8
2016-08-07T02:39:00Z,0000380,00000600,0000.34,0000.67,0000.50,-000.02,0000.22,-000.24,0000.08,0000.02,0000.10,27.3,04.5,0672.5,34.8
2016-08-07T02:40:00Z,0000380,00000600,0001.02,0000.48,0000.98,-000.35,0000.25,0000.25,-000.02,0000.23,0000.05,27.3,04.5,0672.5,34.8
2016-08-07T02:41:00Z,0000380,00000600,0001.08,0001.04,0000.47,-000.16,0000.36,0000.27,0000.23,-000.18,0000.28,27.4,04.5,0672.6,34.8
2016-08-07T02:42:00Z,0000380,00000600,0001.67,0000.82,0000.49,0000.19,0000.78,0000.08,0000.03,0000.11,-000.36,27.4,04.5,0672.6,34.8
2016-08-07T02:43:00Z,0000380,00000600,0001.28,0000.56,0000.23,-000.19,0000.39,-000.22,0000.14,0000.23,0000.30,27.4,04.5,0672.6,34.8
2016-08-07T02:44:00Z,0000380,00000600,0000.39,0000.70,0000.57,0000.32,0000.46,0000.30,0000.15,0000.06,-000.06,27.4,04.4,0672.6,34.8
2016-08-07T02:45:00Z,0000380,00000600,0001.34,0000.73,0000.44,0000.17,0000.25,-000.22,-000.04,0000.01,0000.04,27.4,04.4,0672.6,34.8
2016-08-07T02:46:00Z,0000380,00000600,0001.83,0000.65,0000.52,-000.24,0000.36,0000.19,-000.07,0000.04,-000.00,27.3,04.4,0672.6,34.8
2016-08-07T02:47:00Z,0000380,00000600,0001.39,0000.86,0000.64,0000.16,0000.58,0000.08,0000.20,0000.08,0000.28,27.4,04.4,0672.6,34.8
2016-08-07T02:48:00Z,0000380,00000600,0000.99,0000.75,0000.35,-000.87,0000.16,0000.00,0000.11,0000.09,-000.09,27.3,04.4,0672.6,34.8
2016-08-07T02:49:00Z,0000380,00000600,0000.43,0001.19,0000.59,-000.08,-000.13,0000.19,-000.06,-000.04,0000.15,27.4,04.4,0672.6,34.8
2016-08-07T02:50:00Z,0000380,00000600,0001.58,0000.00,0000.51,0000.19,0000.53,0000.08,0000.09,0000.19,-000.10,27.4,04.4,0672.6,34.8
2016-08-07T02:51:00Z,0000380,00000600,0001.72,0000.96,0000.87,0000.28,0000.24,0000.52,0000.12,0000.01,0000.16,27.4,04.4,0672.6,34.8
2016-08-07T02:52:00Z,0000380,00000600,0001.55,0000.83,0000.61,0000.25,0000.22,0000.24,0000.09,0000.22,0000.18,27.3,04.3,0672.6,34.8
2016-08-07T02:53:00Z,0000380,00000600,0001.93,0000.62,0000.30,-000.13,-000.20,-000.03,0000.01,0000.10,-000.34,27.4,04.4,0672.5,34.8
2016-08-07T02:54:00Z,0000380,00000600,0001.74,0000.38,0000.56,-000.28,0000.03,0000.11,0000.04,-000.02,0000.21,27.4,04.3,0672.5,34.8
2016-08-07T02:55:00Z,0000380,00000600,0000.99,0000.35,0000.71,0000.20,0000.24,0000.06,0000.30,-000.06,0000.34,27.3,04.3,0672.6,34.8
2016-08-07T02:56:00Z,0000380,00000600,0001.05,0000.71,0000.33,-000.08,0000.08,-000.14,-000.11,0000.26,-000.09,27.4,04.3,0672.6,34.8
2016-08-07T02:57:00Z,0000380,40000600,,,,,,,,,,,,0672.7,34.8
2016-08-07T02:58:00Z,0000380,60000600,,,,,,,,,,27.2,04.5,0671.6,34.8
2016-08-07T02:59:00Z,0000380,20000600,,,,,,,,,,27.2,04.5,0671.6,34.8
2016-08-07T03:00:00Z,0000380,20000600,,,,,,,,,,27.2,04.5,0671.6,34.8
2016-08-07T03:01:00Z,0000380,20000600,,,,,,,,,,27.2,04.5,0671.6,34.8
2016-08-07T03:02:00Z,0000380,20000600,,,,,,,,,,27.2,04.3,0671.5,34.8
2016-08-07T03:03:00Z,0000380,60000600,,,,,,,,,,27.2,04.3,0671.5,34.8
2016-08-07T03:04:00Z,0000380,40000600,0000.37,0000.28,0000.34,0000.20,-000.25,0000.11,0000.15,0000.08,0000.11,27.3,04.2,0672.4,34.8
2016-08-07T03:05:00Z,0000380,00000600,0001.56,0001.02,0000.19,0000.41,0000.09,0000.11,0000.10,0000.03,0000.00,27.3,04.2,0672.5,34.8
2016-08-07T03:06:00Z,0000380,00000600,0001.44,0001.24,0000.69,-000.35,0000.09,0000.06,0000.03,0000.04,0000.01,27.4,04.2,0672.4,34.8
2016-08-07T03:07:00Z,0000380,00000600,0002.06,0000.84,0000.67,0000.08,-000.02,0000.54,0000.07,0000.05,0000.32,27.4,04.3,0672.4,34.8
2016-08-07T03:08:00Z,0000380,00000600,0001.04,0001.02,0000.52,0000.19,0000.68,0000.17,0000.20,0000.13,-000.17,27.4,04.2,0672.4,34.8
2016-08-07T03:09:00Z,0000380,00000600,0000.93,0001.23,0000.55,0001.02,0000.20,0000.24,0000.08,0000.09,0000.20,27.4,04.3,0672.4,34.8
2016-08-07T03:10:00Z,0000380,00000600,0002.04,0000.52,0000.34,0000.38,0000.22,0000.28,-000.09,0000.21,0000.05,27.4,04.2,0672.4,34.8
2016-08-07T03:11:00Z,0000380,00000600,0000.63,0000.55,0000.75,0000.11,-000.33,-000.05,0000.19,-000.02,0000.15,27.4,04.3,0672.4,34.8
2016-08-07T03:12:00Z,0000380,00000600,0001.64,0001.37,0000.61,0000.24,-000.28,0000.14,0000.07,0000.24,-000.03,27.4,04.2,0672.4,34.8